TITAN 3C TRANSTAGE DEB, 25000

Orbit data source: Space-Track

TITAN 3C TRANSTAGE DEB, 25000 is space debris in GEO originally from a launch on Thu, 26 Sep 1968 UTC launched from the Air Force Eastern Test Range (AFETR). Debris objects in space refer to the collection of defunct objects orbiting the Earth. Examples of debris include non-operational satellites, rocket bodies, and fragments generated from explosions, collisions, or faulty payload assembly.

Loading next visibility...
Identifier
25000, 1968-081G
Orbit
GEO
Country
Flag of USUS
Related business
Manufacturer
Unknown
Mission
Spacecraft
Bus & Motor
Unknown
Mass
Unknown
Launch date (UTC)
1968-09-26 (58 years ago)
Launch vehicle
Unknown
Launch site
Air Force Eastern Test Range (AFETR)
Object type
Payload
Rocket body
Debris
Shape & HBR
Unknown shape, 1.1 m
Radar Cross Section
Large (>1 m²)

Expand to show TLE details & history
Last TLE update: 7 hours ago

TLE from 7 hours ago
0 TITAN 3C TRANSTAGE DEB
1 25000U 68081G   26258.19114529 -.00000093  00000-0  00000-0 0  9998
2 25000   2.0793  47.1572 0112320 287.4644 320.2338  1.01035997126229
Epoch: 2026-09-15T04:35Z
TLE epoch observation values (Epoch: 2026-09-15T04:35:14.953Z)
Latitude
-1.89522°
Longitude
-128.9776°
Altitude
35,213.232 km
Speed
3.109 km/s
True Right ascension
19h 35m 58s
True Declination
-1° 53' 36"
Sunlit
Object was in daylight at epoch
Visualization orbit readout
Latitude
Unknown
Longitude
Unknown
Altitude
Unknown
Speed
Unknown
Apparent Right ascension
Unknown
Apparent Declination
Unknown
Sunlit
N/A
Visualization observer readout
Local Sidereal Time
04:11:16
Azimuth
Unknown
Elevation
Unknown
Doppler factor
Unknown
Orbital elements
Apogee altitude
36,045.999 km
Perigee altitude
35,103.569 km
Semi-major axis
41,952.921 km
Eccentricity
0.01123
Inclination
2.0793°
RAAN
47.1572°
Arg. of periapsis
287.4644°
True anomaly
319.40155°
Mean anomaly
320.2338°
Eccentric anomaly
319.81858°
Mean motion
0.25258 °/min
Orbital period
1,425.29 mins
BSTAR
0
Loading maneuver chart data...
Computing Atmospheric mass density...

Documentation

Showing up to 5 results
|